GEFSMW_con_prob3kmehi_228.txt.gz
EHI
7 6 6 7 7 7 8 8 8 11 12 11 10 7 4 2 4 4 4 5 6 5 5 6 7 9 10 8 5 3 2 1 0 0 0 0 0 0 0 0 0 0 0
9 9 10 11 10 10 10 10 9 10 11 11 9 6 4 4 5 5 5 5 5 5 6 6 7 8 9 7 4 3 2 1 0 0 0 0 0 0 0 0 0 0 0
12 14 16 16 15 14 12 12 10 9 9 10 8 6 6 6 6 5 5 5 4 5 6 7 7 8 8 6 3 2 1 0 0 0 0 0 0 0 0 0 0 0 0
16 17 19 19 15 13 12 11 9 8 8 8 8 7 7 6 5 5 5 4 3 3 5 7 8 9 8 4 1 1 0 0 0 0 0 0 0 0 0 0 0 0 0
16 17 18 17 12 9 9 8 6 6 6 6 6 8 8 7 5 5 5 4 2 3 5 7 7 8 7 3 1 0 0 0 0 0 0 0 0 0 0 0 0 0 0
12 12 13 12 8 6 6 5 4 4 4 4 5 7 8 7 6 6 4 3 3 3 5 6 7 6 5 3 1 0 0 0 0 0 0 0 0 0 0 0 0 0 0
8 8 8 8 7 6 6 5 4 3 3 3 4 5 6 6 6 5 3 2 3 3 4 5 5 5 4 3 2 1 0 0 0 0 0 0 0 0 0 0 0 0 0
6 6 5 6 6 7 7 6 4 3 3 3 3 4 4 4 4 3 1 1 2 3 3 3 3 2 2 3 2 1 1 0 0 0 0 0 0 0 0 0 0 0 0
3 3 2 3 5 6 6 6 5 4 3 1 1 3 3 3 2 1 0 1 2 3 2 2 1 0 1 1 2 2 2 1 1 0 0 0 0 0 0 0 0 0 0
1 1 1 2 3 4 5 4 3 3 2 1 1 2 3 2 1 0 0 1 2 3 2 1 0 0 0 0 1 2 2 2 2 1 0 0 0 0 0 0 0 0 0
0 0 0 2 3 3 3 1 1 1 1 0 1 1 1 1 0 0 0 1 3 2 1 0 0 0 0 0 0 1 1 1 1 1 0 0 0 0 0 0 0 0 0
0 0 0 1 2 2 1 0 0 0 0 0 0 0 0 0 0 0 0 1 2 2 1 0 0 0 0 0 0 0 0 0 0 0 0 0 0 0 0 0 0 0 0
0 0 0 0 1 1 0 0 0 0 0 0 0 0 0 0 0 0 0 1 1 1 0 0 0 0 0 0 0 0 0 0 0 0 0 0 0 0 0 0 0 0 0
0 0 0 0 0 0 0 0 0 0 0 0 0 0 0 0 0 0 0 0 0 0 0 0 0 0 0 0 0 0 0 0 0 0 0 0 0 0 0 0 0 0 0
0 0 0 0 0 0 0 0 0 0 0 0 0 0 0 0 0 0 0 0 0 0 0 0 0 0 0 0 0 0 0 0 0 0 0 0 0 0 0 0 0 0 0
0 0 0 0 0 0 0 0 0 0 0 0 0 0 0 0 0 0 0 0 0 0 0 0 0 0 0 0 0 0 0 0 0 0 0 0 0 0 0 0 0 0 0
1 0 0 0 0 0 0 0 0 0 0 0 0 0 0 0 0 0 0 0 0 0 0 0 0 0 0 0 0 0 0 0 0 0 0 0 0 0 0 0 0 0 0
1 0 0 0 0 0 0 0 0 0 0 0 0 0 0 0 0 0 0 0 0 0 0 0 0 0 0 0 0 0 0 0 0 0 0 0 0 0 0 0 0 0 0
1 0 0 0 0 0 0 0 0 0 0 0 0 0 0 0 0 0 0 0 0 0 0 0 0 0 0 0 0 0 0 0 0 0 0 0 0 0 0 0 0 0 0
0 0 0 0 0 0 0 0 0 0 0 0 0 0 0 0 0 0 0 0 0 0 0 0 0 0 0 0 0 0 0 0 0 0 0 0 0 0 0 0 0 0 0
0 0 0 0 0 0 0 0 0 0 0 0 0 0 0 0 0 0 0 0 0 0 0 0 0 0 0 0 0 0 0 0 0 0 0 0 0 0 0 0 0 0 0
0 0 0 0 0 0 0 0 0 0 0 0 0 0 0 0 0 0 0 0 0 0 0 0 0 0 0 0 0 0 0 0 0 0 0 0 0 0 0 0 0 0 0
0 0 0 0 0 0 0 0 0 0 0 0 0 0 0 0 0 0 0 0 0 0 0 0 0 0 0 0 0 0 0 0 0 0 0 0 0 0 0 0 0 0 0
0 0 0 0 0 0 0 0 0 0 0 0 0 0 0 0 0 0 0 0 0 0 0 0 0 0 0 0 0 0 0 0 0 0 0 0 0 0 0 0 0 0 0
0 0 0 0 0 0 0 0 0 0 0 0 0 0 0 0 0 0 0 0 0 0 0 0 0 0 0 0 0 0 0 0 0 0 0 0 0 0 0 0 0 0 0
0 0 0 0 0 0 0 0 0 0 0 0 0 0 0 0 0 0 0 0 0 0 0 0 0 0 0 0 0 0 0 0 0 0 0 0 0 0 0 0 0 0 0

GEFSMW_con_prob3kmehi_234.txt.gz
EHI
4 5 5 5 6 6 4 3 2 1 1 2 2 1 0 0 0 0 1 3 4 4 3 2 2 2 2 1 2 2 2 1 2 3 3 2 2 2 2 1 0 0 0
4 6 7 6 6 5 4 3 2 1 0 1 2 2 1 0 0 0 1 2 3 3 3 2 1 1 1 0 1 1 1 1 2 3 2 1 1 1 1 1 0 0 0
5 7 8 7 6 5 4 3 2 1 0 1 3 3 2 2 1 1 1 1 2 2 2 2 1 1 1 1 0 0 0 1 2 2 1 0 0 0 0 0 0 0 0
5 7 8 7 6 5 4 4 2 1 1 2 3 3 3 3 3 2 1 0 1 1 1 1 2 2 2 2 1 0 0 0 1 2 1 0 0 0 0 0 0 0 0
5 6 6 6 5 4 4 3 2 2 2 3 3 3 3 4 3 2 1 0 0 0 0 1 1 1 1 1 1 0 0 0 1 2 1 0 0 0 0 0 0 0 0
4 4 4 4 4 3 3 3 2 2 3 3 3 3 3 2 3 2 1 0 0 0 0 0 0 0 0 0 0 0 0 0 1 2 1 0 0 0 0 0 0 0 0
4 4 4 4 4 4 3 2 1 1 2 3 3 2 1 1 2 2 1 0 0 0 0 0 0 0 0 0 0 0 0 0 1 1 0 0 0 0 0 0 0 0 0
3 4 5 5 5 4 4 3 1 0 1 2 1 1 0 1 2 2 1 0 0 0 0 0 0 0 0 0 0 0 0 0 0 0 0 0 0 0 0 0 0 0 0
2 3 3 3 3 3 3 3 2 1 0 0 0 0 0 1 2 2 1 0 0 0 0 0 0 0 0 0 0 0 0 0 0 0 0 0 0 0 0 0 0 0 0
0 1 1 1 1 1 2 3 2 1 0 0 0 0 0 1 2 2 1 0 0 0 0 0 0 0 0 0 0 0 0 0 0 0 0 0 0 0 0 0 0 0 0
0 0 0 0 0 1 1 1 1 0 0 0 0 0 0 1 2 2 1 0 0 0 0 0 0 0 0 0 0 0 0 0 0 0 0 0 0 0 0 0 0 0 0
0 0 0 0 0 0 0 0 0 0 0 0 0 0 0 1 1 1 0 0 0 0 0 0 0 0 0 0 0 0 0 0 0 0 0 0 0 0 0 0 0 0 0
0 0 0 0 0 0 0 0 0 0 0 0 0 0 0 0 0 0 0 0 0 0 0 0 0 0 0 0 0 0 0 0 0 0 0 0 0 0 0 0 0 0 0
0 0 0 0 0 0 0 0 0 0 0 0 0 0 0 0 0 0 0 0 0 0 0 0 0 0 0 0 0 0 0 0 0 0 0 0 0 0 0 0 0 0 0
0 0 0 0 0 0 0 0 0 0 0 0 0 0 0 0 0 0 0 0 0 0 0 0 0 0 0 0 0 0 0 0 0 0 0 0 0 0 0 0 0 0 0
0 0 0 0 0 0 0 0 0 0 0 0 0 0 0 0 0 0 0 0 0 0 0 0 0 0 0 0 0 0 0 0 0 0 0 0 0 0 0 0 0 0 0
0 0 0 0 0 0 0 0 0 0 0 0 0 0 0 0 0 0 0 0 0 0 0 0 0 0 0 0 0 0 0 0 0 0 0 0 0 0 0 0 0 0 0
0 0 0 0 0 0 0 0 0 0 0 0 0 0 0 0 0 0 0 0 0 0 0 0 0 0 0 0 0 0 0 0 0 0 0 0 0 0 0 0 0 0 0
0 0 0 0 0 0 0 0 0 0 0 0 0 0 0 0 0 0 0 0 0 0 0 0 0 0 0 0 0 0 0 0 0 0 0 0 0 0 0 0 0 0 0
0 0 0 0 0 0 0 0 0 0 0 0 0 0 0 0 0 0 0 0 0 0 0 0 0 0 0 0 0 0 0 0 0 0 0 0 0 0 0 0 0 0 0
0 0 0 0 0 0 0 0 0 0 0 0 0 0 0 0 0 0 0 0 0 0 0 0 0 0 0 0 0 0 0 0 0 0 0 0 0 0 0 0 0 0 0
0 0 0 0 0 0 0 0 0 0 0 0 0 0 0 0 0 0 0 0 0 0 0 0 0 0 0 0 0 0 0 0 0 0 0 0 0 0 0 0 0 0 0
0 0 0 0 0 0 0 0 0 0 0 0 0 0 0 0 0 0 0 0 0 0 0 0 0 0 0 0 0 0 0 0 0 0 0 0 0 0 0 0 0 0 0
0 0 0 0 0 0 0 0 0 0 0 0 0 0 0 0 0 0 0 0 0 0 0 0 0 0 0 0 0 0 0 0 0 0 0 0 0 0 0 0 0 0 0
0 0 0 0 0 0 0 0 0 0 0 0 0 0 0 0 0 0 0 0 0 0 0 0 0 0 0 0 0 0 0 0 0 0 0 0 0 0 0 0 0 0 0
0 0 0 0 0 0 0 0 0 0 0 0 0 0 0 0 0 0 0 0 0 0 0 0 0 0 0 0 0 0 0 0 0 0 0 0 0 0 0 0 0 0 0

GEFSMW_con_prob3kmehi_240.txt.gz
EHI
6 7 7 5 4 6 9 10 12 14 17 17 17 14 10 8 6 4 2 2 3 3 3 5 6 3 3 5 6 4 3 3 3 1 0 0 0 0 0 0 1 2 3
7 7 8 7 5 6 9 10 11 14 17 18 18 17 13 10 6 4 3 3 3 3 3 5 5 3 3 4 5 4 4 3 3 2 1 0 0 0 0 0 0 1 2
5 7 9 7 5 7 10 11 12 14 16 17 17 16 15 11 6 3 4 4 3 3 3 4 3 2 2 3 3 4 4 4 3 3 2 2 1 1 0 0 0 0 1
4 6 7 4 3 6 9 12 15 16 15 15 14 14 13 10 5 4 4 4 3 3 3 4 4 3 2 3 3 3 3 3 3 3 3 4 4 2 1 0 1 1 1
3 4 4 4 3 5 8 10 14 16 15 14 14 12 10 8 6 5 5 4 3 3 3 4 6 5 4 4 3 2 2 1 1 2 3 4 4 3 2 1 2 2 2
5 5 5 5 5 6 8 9 11 12 13 13 11 8 7 6 6 6 5 4 4 4 4 4 6 7 6 4 2 1 0 0 1 1 2 3 4 5 4 3 2 2 3
8 8 7 7 7 8 10 11 10 9 9 9 8 6 5 6 6 6 5 4 4 4 3 3 5 6 4 2 1 0 1 1 1 1 1 2 4 5 5 3 1 1 3
9 8 7 7 9 10 11 11 9 7 7 6 5 5 6 6 6 6 5 5 4 2 1 2 4 3 2 1 0 1 2 3 2 1 1 1 2 3 3 2 1 1 1
7 7 7 8 10 10 11 9 7 6 6 6 4 4 5 6 6 5 5 4 3 1 0 0 1 2 1 0 1 1 3 3 3 3 2 2 2 1 1 1 1 1 1
6 6 6 7 8 8 7 6 4 3 5 5 4 2 3 3 3 3 4 3 1 1 1 1 0 0 0 1 2 3 3 3 3 3 3 3 3 2 2 2 1 0 0
6 6 4 4 4 5 4 4 2 1 2 3 2 1 1 1 1 1 2 2 1 2 2 1 0 0 0 1 2 2 2 3 3 3 3 3 3 3 3 3 1 1 1
6 4 2 1 2 2 2 1 0 0 0 1 1 0 0 0 0 1 2 1 1 2 2 1 0 0 0 0 1 1 1 1 2 2 2 3 3 3 3 3 3 2 2
5 2 0 1 1 1 0 0 0 0 0 0 0 0 0 0 0 1 1 1 1 1 1 0 0 0 0 0 0 0 0 0 1 1 1 1 2 3 3 3 3 3 3
4 2 0 0 0 0 0 0 0 0 0 0 0 0 0 0 0 0 0 0 0 0 0 0 0 0 0 0 0 0 0 0 0 0 0 0 1 1 2 2 3 3 3
4 1 0 0 0 0 0 0 0 0 0 0 0 0 0 0 0 0 0 0 0 0 0 0 0 0 0 0 0 0 0 0 0 0 0 0 0 0 0 1 2 2 2
3 1 0 0 0 0 0 0 0 0 0 0 0 0 0 0 0 0 0 0 0 0 0 0 0 0 0 0 0 0 0 0 0 0 0 0 0 0 0 0 1 1 1
4 2 1 1 0 0 0 0 0 0 0 0 0 0 0 0 0 0 0 0 0 0 0 0 0 0 0 0 0 0 0 0 0 0 0 0 0 0 0 0 0 0 0
4 3 3 2 0 0 0 0 0 0 0 0 0 0 0 0 0 0 0 0 0 0 0 0 0 0 0 0 0 0 0 0 0 0 0 0 0 0 0 0 0 0 0
4 5 4 2 0 0 0 0 0 0 0 0 0 0 0 0 0 0 0 0 0 0 0 0 0 0 0 0 0 0 0 0 0 0 0 0 0 0 0 0 0 0 0
5 5 4 2 1 0 0 0 0 0 0 0 0 0 0 0 0 0 0 0 0 0 0 0 0 0 0 0 0 0 0 0 0 0 0 0 0 0 0 0 0 0 0
6 5 3 2 1 0 0 0 0 0 0 0 0 0 0 0 0 0 0 0 0 0 0 0 0 0 0 0 0 0 0 0 0 0 0 0 0 0 0 0 0 0 0
5 4 2 1 1 0 0 0 0 0 0 0 0 0 0 0 0 1 1 0 0 0 0 0 0 0 0 0 0 0 0 0 0 0 0 0 0 0 0 0 0 0 0
4 3 1 1 0 0 0 0 0 0 0 0 0 0 0 0 1 2 2 1 0 0 0 0 0 0 0 0 0 0 0 0 0 0 0 0 0 0 0 0 0 0 0
3 3 3 2 1 0 0 0 0 0 0 0 0 0 0 0 1 2 3 2 0 0 0 0 0 0 0 0 0 0 0 0 0 0 0 0 0 0 0 0 0 0 0
3 3 3 2 1 0 0 0 0 0 0 0 0 0 0 0 0 1 2 1 0 0 0 0 0 0 0 0 0 0 0 0 0 0 0 0 0 0 0 0 0 0 0
3 3 3 1 0 0 0 0 0 0 0 0 0 0 0 0 0 0 1 0 0 0 0 0 0 0 0 0 0 0 0 0 0 0 0 0 0 0 0 0 0 0 0

GEFSMW_con_prob3kmehi_246.txt.gz
EHI
23 27 28 29 34 37 36 36 37 36 32 28 27 27 27 24 17 14 17 19 17 14 14 17 18 16 14 12 10 8 7 6 4 2 2 1 0 0 1 3 5 5 4
26 28 29 29 32 34 34 34 36 37 36 33 30 28 27 22 16 14 16 17 15 12 12 15 15 14 14 13 11 8 6 5 4 3 3 2 0 0 0 2 4 6 6
26 28 29 29 30 31 32 32 35 37 38 37 32 29 26 21 15 15 15 14 11 9 9 12 14 13 13 12 9 6 4 3 2 2 2 1 0 0 0 1 3 5 6
22 25 26 26 27 30 32 32 34 36 36 35 32 29 25 20 16 16 15 12 10 8 9 11 13 12 10 8 6 4 3 2 0 0 0 0 1 1 1 1 2 3 4
18 21 23 23 25 29 34 35 34 33 32 31 30 27 23 18 16 16 14 11 9 9 9 11 12 10 8 6 4 3 3 2 0 0 0 0 1 2 2 1 1 2 3
15 18 21 22 25 29 34 35 33 31 29 27 26 22 19 17 17 16 14 11 10 10 10 11 11 10 9 7 6 4 3 2 1 0 0 0 0 1 1 0 1 2 3
13 15 18 23 27 30 32 32 30 28 26 24 22 19 18 17 16 15 14 13 12 11 10 10 11 11 10 9 8 6 4 3 2 1 1 1 1 1 1 1 1 1 2
12 14 17 23 29 31 31 29 26 25 23 22 22 20 18 15 13 13 13 13 13 10 9 9 9 10 10 9 9 6 4 3 3 3 2 3 3 2 2 3 2 1 1
12 14 17 23 28 30 29 26 23 20 20 20 19 19 17 13 10 10 10 11 11 8 6 7 7 8 8 8 9 7 5 4 3 3 3 4 4 4 4 5 4 2 2
13 16 20 24 28 28 25 22 19 16 15 15 15 14 13 11 9 7 7 9 8 6 4 4 5 5 6 7 8 7 6 4 3 2 2 3 4 5 6 5 5 4 4
16 19 22 25 26 24 18 15 14 12 10 10 11 11 10 9 7 6 5 7 7 5 4 3 4 3 4 5 6 5 4 3 2 1 1 1 2 4 5 4 4 4 4
19 20 20 21 21 18 13 10 10 8 7 7 8 8 7 7 6 5 5 6 6 4 3 3 3 3 3 3 3 2 1 1 1 1 0 0 1 2 2 3 3 3 3
19 19 18 18 18 15 12 9 7 6 4 5 5 6 6 6 6 6 6 5 4 3 3 3 3 3 2 1 1 0 0 0 1 1 0 0 0 1 1 2 3 3 3
19 19 19 19 18 16 12 8 6 5 4 4 4 4 4 4 5 6 5 4 3 3 3 3 3 1 1 0 0 0 0 0 0 0 0 0 1 1 1 1 1 2 3
19 19 19 19 19 16 12 8 6 5 3 2 2 2 1 1 2 3 3 2 2 3 3 3 2 1 0 0 0 0 0 0 0 0 0 0 1 1 1 0 0 1 2
18 19 19 19 19 17 13 9 7 5 2 1 1 1 0 0 0 1 1 2 2 3 4 3 1 0 0 0 0 0 0 0 0 0 0 0 0 0 0 0 0 0 1
17 18 19 19 19 19 16 11 7 3 1 0 0 0 0 0 0 0 1 2 3 5 6 4 1 0 0 0 0 0 0 0 0 0 0 0 0 0 0 0 1 1 0
17 18 19 18 19 19 17 12 6 3 1 0 0 0 0 0 0 1 2 3 5 6 6 4 1 0 0 0 0 0 0 0 1 1 0 0 0 0 0 1 2 2 1
18 18 18 18 19 19 16 12 7 3 1 0 0 0 0 0 0 1 3 5 7 7 6 4 2 0 0 0 0 0 0 0 1 2 1 0 0 0 0 1 2 2 1
19 18 18 18 19 19 18 14 9 4 2 0 0 0 0 0 0 2 4 6 8 8 7 5 3 1 0 0 0 0 0 0 1 1 1 0 0 0 0 0 1 1 0
17 17 18 19 19 20 18 15 11 7 4 1 0 0 0 0 1 3 6 7 8 8 8 6 4 3 1 0 0 0 0 0 0 0 0 0 0 0 0 0 0 0 0
16 16 18 19 19 18 17 16 13 10 6 3 1 1 1 0 1 3 5 6 7 7 6 5 4 3 2 1 0 0 0 0 0 0 0 0 0 0 0 0 0 0 0
16 15 16 17 17 16 16 15 14 11 7 5 4 5 3 2 2 3 4 4 4 4 4 3 2 2 2 2 1 0 0 0 0 0 0 0 0 0 0 0 0 0 0
15 14 13 14 15 15 14 14 12 10 8 6 5 5 3 2 3 4 3 2 3 3 2 1 1 1 2 2 1 0 0 0 0 0 0 0 0 1 1 1 1 1 0
13 13 13 13 13 12 12 12 11 10 8 6 4 3 2 1 2 3 2 2 2 2 1 0 0 0 1 1 0 0 0 0 0 0 0 0 0 1 2 2 2 2 1
13 13 14 13 12 11 11 12 11 9 8 6 4 2 1 0 1 1 1 1 1 1 0 0 0 0 0 0 0 0 0 0 0 0 0 0 0 1 2 3 3 3 3

GEFSMW_con_prob3kmehi_252.txt.gz
EHI
16 16 17 18 18 16 13 11 12 13 15 14 11 8 6 6 6 6 7 7 6 5 6 6 4 3 3 3 3 4 3 2 2 2 1 0 0 0 0 0 0 0 0
17 17 19 20 19 17 15 12 12 13 14 13 10 7 5 4 4 4 5 4 3 3 4 3 2 2 2 3 3 3 3 2 2 2 1 0 0 0 0 0 0 0 0
18 18 20 21 19 16 15 13 12 12 12 12 9 7 5 3 2 1 1 1 1 1 2 2 2 2 2 2 2 2 3 2 2 1 0 0 0 0 0 0 0 0 0
18 17 18 18 16 13 13 12 10 9 10 10 10 9 6 3 1 0 0 0 1 2 3 3 3 2 1 1 1 1 2 2 1 0 0 0 0 0 0 0 0 0 0
14 14 13 14 13 12 11 9 7 7 8 10 10 9 7 4 2 2 1 2 3 3 3 3 3 3 1 0 0 1 1 1 1 0 0 0 0 0 0 0 0 0 0
9 9 9 11 12 12 11 9 7 7 9 10 10 9 7 5 4 4 4 5 4 4 3 3 3 3 2 1 0 0 1 1 0 0 0 0 0 0 0 0 0 0 0
7 7 8 9 11 13 13 11 9 9 10 10 9 8 7 6 6 5 5 5 4 3 3 3 3 3 3 1 0 0 0 0 0 0 0 0 0 0 0 0 0 0 0
6 6 7 9 11 13 13 12 10 10 10 10 9 7 7 6 6 4 4 4 3 3 3 3 3 3 3 2 1 0 0 0 0 0 0 0 0 0 0 0 0 0 0
5 6 7 9 11 12 12 11 10 9 9 8 7 7 6 6 5 4 3 3 3 3 3 3 3 3 3 2 1 0 0 0 0 0 0 0 0 0 0 0 0 0 0
4 6 8 9 10 11 10 9 9 8 8 7 7 6 6 6 4 3 3 3 3 3 3 3 3 3 3 2 1 0 0 0 0 0 0 0 0 0 0 0 0 0 0
5 8 10 10 10 10 9 8 7 7 7 6 6 6 6 5 4 3 3 3 3 3 3 3 3 3 3 3 1 0 0 0 0 0 0 0 0 0 0 0 0 0 0
7 11 13 11 10 9 7 6 6 6 6 6 6 5 4 4 3 3 2 2 2 3 3 3 3 3 3 3 2 1 0 0 0 0 0 0 0 0 0 0 0 0 0
9 11 12 11 10 8 6 4 4 4 4 5 4 4 3 3 3 2 1 1 1 1 3 3 3 3 3 3 2 1 0 0 0 0 0 0 0 0 0 0 0 0 0
9 9 8 8 8 6 4 3 3 3 3 4 3 3 3 3 3 3 2 1 0 1 3 3 3 3 3 3 2 1 0 0 0 0 0 0 0 0 0 0 0 0 0
8 7 6 6 4 3 3 3 3 3 3 3 3 3 3 2 2 2 2 1 0 2 3 3 3 3 3 2 1 0 0 0 0 0 0 0 0 0 0 0 0 0 0
6 5 4 3 2 2 3 3 3 3 3 3 3 2 1 1 1 1 1 0 0 1 2 2 3 3 3 1 0 0 0 0 0 0 0 0 0 0 0 0 0 0 0
4 4 4 4 2 1 2 3 3 3 3 3 2 1 0 0 0 0 0 0 0 0 1 1 1 2 2 1 0 0 0 0 0 0 0 0 0 0 0 0 0 0 0
3 4 5 5 3 2 3 3 3 3 2 1 1 0 0 0 0 0 0 0 0 0 0 0 0 1 1 0 0 0 0 0 0 0 0 0 0 0 0 0 0 0 0
2 3 5 4 3 3 3 3 3 2 1 0 0 0 0 0 0 0 0 0 0 0 0 0 0 0 0 0 0 0 0 0 0 0 0 0 0 0 0 0 0 0 0
2 3 4 4 3 3 2 2 1 1 0 0 0 0 0 0 0 0 0 0 0 0 0 0 0 0 0 0 0 0 0 0 0 0 0 0 0 0 0 0 0 0 0
2 3 3 3 2 1 1 1 0 0 0 0 0 0 0 0 0 0 0 0 0 0 0 0 0 0 0 0 0 0 0 0 0 0 0 0 0 0 0 0 0 0 0
2 1 1 1 1 0 0 1 1 0 0 0 0 0 0 0 0 0 0 0 0 0 0 0 0 0 0 0 0 0 0 0 0 0 0 0 0 0 0 0 0 0 0
1 0 0 0 0 0 0 1 1 0 0 0 0 0 0 0 0 0 0 0 0 0 0 0 0 0 0 0 0 0 0 0 0 0 0 0 0 0 0 0 0 0 0
0 0 0 0 0 0 0 1 1 0 0 0 0 0 0 0 0 0 0 0 0 0 0 0 0 0 0 0 0 0 0 0 0 0 0 0 0 0 0 0 0 0 0
0 0 0 0 0 0 0 0 0 0 0 0 0 0 0 0 0 0 0 0 0 0 0 0 0 0 0 0 0 0 0 0 0 0 0 0 0 0 0 0 0 0 0
0 0 0 0 0 0 0 0 0 0 0 0 0 0 0 0 0 0 0 0 0 0 0 0 0 0 0 0 0 0 0 0 0 0 0 0 0 0 0 0 0 0 0

GEFSMW_con_prob3kmehi_258.txt.gz
EHI
4 5 7 9 8 7 6 6 6 5 4 3 3 3 3 3 2 2 3 3 3 3 3 3 3 3 2 1 0 1 2 3 3 3 3 3 1 0 0 0 0 0 0
4 6 8 8 7 6 5 4 5 4 4 4 3 3 3 3 2 2 3 3 3 3 3 3 3 3 2 0 0 0 2 3 3 3 3 2 1 0 0 0 0 0 0
5 7 8 8 7 6 4 3 4 4 5 5 4 3 3 3 3 3 3 3 3 3 3 3 3 3 2 1 0 1 2 2 2 2 2 1 1 0 0 0 0 0 0
6 7 9 8 7 6 4 3 4 5 6 6 5 3 3 3 3 3 3 3 3 3 3 3 3 3 2 1 0 1 1 1 1 0 0 0 0 0 0 0 0 0 0
8 9 9 9 7 6 4 3 4 5 6 7 6 4 3 3 3 3 3 3 3 3 3 3 3 3 3 1 0 0 0 0 0 0 0 0 0 0 0 0 0 0 0
9 9 10 9 7 6 5 4 3 4 5 6 5 4 3 3 3 3 3 3 3 3 3 3 3 3 3 2 1 1 0 0 0 0 0 0 0 0 0 0 0 0 0
9 9 9 8 7 6 6 4 3 3 3 4 4 3 3 3 3 3 3 3 3 3 3 3 3 3 3 3 3 2 1 0 0 0 0 0 0 0 0 0 0 0 0
7 7 7 7 7 6 6 4 3 3 3 3 4 3 3 3 3 3 3 3 3 3 3 3 3 3 3 3 3 2 1 0 0 0 0 0 0 0 0 0 0 0 0
6 6 6 6 6 6 5 4 3 3 4 5 5 4 3 3 3 3 3 3 3 3 3 3 3 3 3 3 3 2 1 0 0 0 0 0 0 0 0 0 0 0 0
6 6 6 5 5 5 4 4 4 4 5 6 6 5 4 4 3 3 3 3 3 3 3 3 3 3 3 3 3 3 1 0 0 0 0 0 0 0 0 0 0 0 0
3 5 5 4 4 4 4 4 5 6 6 6 6 6 6 5 4 3 3 3 3 3 3 3 3 3 3 3 3 3 2 1 0 0 0 0 0 0 0 0 0 0 0
1 2 3 3 3 3 4 5 6 6 6 6 6 6 6 6 4 3 3 3 3 3 3 3 3 3 3 3 3 3 3 2 1 0 0 0 0 0 0 0 0 0 0
0 0 2 3 3 4 5 6 6 6 6 6 6 6 6 6 4 3 3 3 3 3 3 3 3 3 3 3 3 3 3 3 2 1 0 0 0 0 0 0 0 0 0
0 0 1 2 4 5 6 6 6 6 6 6 6 6 6 6 5 4 3 3 3 3 3 3 3 3 3 3 3 3 3 3 2 1 0 0 0 0 0 0 0 0 0
0 0 0 1 3 5 6 6 6 6 6 6 6 6 6 6 6 4 3 3 3 3 3 3 3 3 3 3 3 3 3 3 2 1 0 0 0 0 0 0 0 0 0
0 0 0 0 1 3 4 5 6 6 6 6 6 6 6 6 5 4 3 3 3 3 3 3 3 3 3 3 3 3 3 3 3 1 0 0 0 0 0 0 0 0 0
1 0 0 0 0 1 1 3 4 4 5 6 6 6 6 5 4 3 3 3 3 3 3 3 3 3 3 2 1 1 2 3 3 2 0 0 0 0 0 0 0 0 0
1 0 0 0 0 0 0 1 3 3 4 4 4 4 4 4 3 3 3 3 3 3 3 3 3 3 3 1 0 0 1 3 3 1 0 0 0 0 0 0 0 0 0
1 0 0 0 0 0 0 1 2 3 3 3 3 3 3 3 3 3 3 3 2 1 1 2 2 2 2 1 0 0 1 2 2 1 0 0 0 0 0 0 0 0 0
0 0 0 0 0 0 0 1 2 3 3 3 3 3 3 3 3 3 2 1 1 0 0 1 1 1 1 0 0 0 0 1 1 0 0 0 0 0 0 0 0 0 0
0 0 0 0 0 0 0 1 2 3 3 3 3 3 3 2 2 1 1 0 0 0 0 0 0 0 0 0 0 0 0 0 0 0 0 0 0 0 0 0 0 0 0
0 0 0 0 0 0 0 0 1 2 2 2 2 2 1 1 1 0 0 0 0 0 0 0 0 0 0 0 0 0 0 0 0 0 0 0 0 0 0 0 0 0 0
0 0 0 1 1 0 0 0 0 1 1 1 1 1 0 0 0 0 0 0 0 0 0 0 0 0 0 0 0 0 0 0 0 0 0 0 0 0 0 0 0 0 0
0 0 0 1 1 1 0 0 0 0 0 0 0 0 0 0 0 0 0 0 0 0 0 0 0 0 0 0 0 0 0 0 0 0 0 0 0 0 0 0 0 0 0
0 0 0 1 1 1 0 0 0 0 0 0 0 0 0 0 0 0 0 0 0 0 0 0 0 0 0 0 0 0 0 0 0 0 0 0 0 0 0 0 0 0 0
0 0 0 0 0 1 0 0 0 0 0 0 0 0 0 0 0 0 0 0 0 0 0 0 0 0 0 0 0 0 0 0 0 0 0 0 0 0 0 0 0 0 0